Weather History for KVTN - August, 2013

Change the Weather History Date:

Saturday, August 24, 2013

  Actual Average Record
Temperature  
Mean Temperature 84 °F 72 °F  
Max Temperature 97 °F 86 °F 107 °F (1936)
Min Temperature 70 °F 57 °F 41 °F (2010)
Degree Days  
Heating Degree Days 0 1  
Month to date heating degree days 0 5  
Since 1 June heating degree days 57 74  
Since 1 July heating degree days 3 13  
Cooling Degree Days 19 7  
Month to date cooling degree days 197 214  
Year to date cooling degree days 674 689  
Since 1 June cooling degree days 635 655  
Growing Degree Days 34 (Base 50)    
Moisture  
Dew Point 64 °F    
Average Humidity 56    
Maximum Humidity 87    
Minimum Humidity 25    
Precipitation  
Precipitation 0.01 in 0.05 in 1.15 in (1943)
Month to date precipitation 2.00 1.82  
Year to date precipitation 17.63 15.75  
Snow  
Snow 0.00 in 0.00 in 0.00 in ()
Month to date snowfall 0.0 0.0  
Since 1 June snowfall 0.0 0.0  
Since 1 July snowfall 0.0 0.0  
Snow Depth 0.00 in    
Sea Level Pressure  
Sea Level Pressure 29.82 in    
Wind  
Wind Speed 15 mph (South)    
Max Wind Speed 24 mph    
Max Gust Speed 31 mph    
Visibility 10 miles    
Events Thunderstorm    
T = Trace of Precipitation, MM = Missing Value Source: NWS Daily Summary

Daily Weather History Graph

Daily Weather History Graph

Search for Another Location

Airport or City:

Trip Planner

Search our weather history database for the weather conditions in past years. The results will help you decide how hot, cold, wet, or windy it might be!

Date:

Astronomy

Aug. 24, 2013 Rise Set
Actual Time 6:58 AM CDT 8:29 PM CDT
Civil Twilight 6:28 AM CDT 8:59 PM CDT
Nautical Twilight 5:52 AM CDT 9:35 PM CDT
Astronomical Twilight 5:14 AM CDT 10:13 PM CDT
Moon 10:16 PM CDT (8/24) 11:07 AM CDT (8/24)
Length of Visible Light 14h 30m
Length of Day
13h 31m
Waning Gibbous, 84% of the Moon is Illuminated
Aug 24
Waning Gibbous
Aug 28
Last Quarter
Sep 5
New
Sep 12
First Quarter
Sep 19
Full

Hourly Weather History & Observations

Time (CDT) Temp. Heat Index Dew Point Humidity Pressure Visibility Wind Dir Wind Speed Gust Speed Precip Events Conditions
12:52 AM 75.0 °F - 69.1 °F 82% 29.83 in 10.0 mi South 16.1 mph 21.9 mph N/A   Clear
1:52 AM 75.0 °F - 69.1 °F 82% 29.82 in 10.0 mi South 11.5 mph 17.3 mph N/A   Mostly Cloudy
2:23 AM 75.2 °F - 69.8 °F 83% 29.88 in 10.0 mi South 8.1 mph - N/A Thunderstorm Thunderstorm
2:43 AM 75.2 °F - 69.8 °F 83% 29.88 in 10.0 mi South 15.0 mph 21.9 mph N/A   Mostly Cloudy
2:52 AM 73.9 °F - 69.1 °F 85% 29.81 in 10.0 mi South 9.2 mph - N/A   Scattered Clouds
3:52 AM 73.9 °F - 68.0 °F 82% 29.80 in 10.0 mi South 13.8 mph - 0.01 in   Scattered Clouds
4:52 AM 72.0 °F - 64.9 °F 78% 29.80 in 10.0 mi South 8.1 mph - N/A   Clear
5:52 AM 71.1 °F - 63.0 °F 75% 29.80 in 10.0 mi SSW 6.9 mph - N/A   Clear
6:52 AM 71.1 °F - 61.0 °F 70% 29.80 in 10.0 mi SSW 13.8 mph - N/A   Clear
7:52 AM 70.0 °F - 60.1 °F 71% 29.82 in 10.0 mi SSW 8.1 mph - N/A   Clear
8:52 AM 73.0 °F - 62.1 °F 68% 29.83 in 10.0 mi SW 8.1 mph - N/A   Clear
9:52 AM 78.1 °F - 63.0 °F 60% 29.84 in 10.0 mi WSW 9.2 mph - N/A   Clear
10:52 AM 84.0 °F 85.4 °F 64.0 °F 51% 29.84 in 10.0 mi SSW 12.7 mph - N/A   Clear
11:52 AM 89.1 °F 91.0 °F 64.9 °F 45% 29.84 in 10.0 mi South 11.5 mph - N/A   Clear
12:52 PM 91.0 °F 91.9 °F 63.0 °F 39% 29.84 in 10.0 mi SSW 12.7 mph - N/A   Clear
1:52 PM 95.0 °F 94.8 °F 60.1 °F 31% 29.82 in 10.0 mi SSW 21.9 mph 29.9 mph N/A   Clear
2:52 PM 96.1 °F 94.8 °F 57.0 °F 27% 29.82 in 10.0 mi South 21.9 mph 26.5 mph N/A   Clear
3:52 PM 96.1 °F 94.5 °F 55.9 °F 26% 29.81 in 10.0 mi SSW 18.4 mph 25.3 mph N/A   Clear
4:52 PM 96.1 °F 96.0 °F 60.1 °F 30% 29.81 in 10.0 mi South 21.9 mph 26.5 mph N/A   Clear
5:52 PM 95.0 °F 95.6 °F 62.1 °F 33% 29.81 in 10.0 mi South 18.4 mph 26.5 mph N/A   Partly Cloudy
6:52 PM 91.9 °F 95.4 °F 66.9 °F 44% 29.80 in 10.0 mi SSE 16.1 mph - N/A   Clear
7:52 PM 88.0 °F 91.4 °F 68.0 °F 51% 29.80 in 10.0 mi SSE 15.0 mph - N/A   Clear
8:52 PM 84.0 °F 86.5 °F 66.9 °F 56% 29.81 in 10.0 mi SSE 16.1 mph - N/A   Clear
9:52 PM 82.0 °F 84.1 °F 66.0 °F 58% 29.83 in 10.0 mi South 16.1 mph - N/A   Clear
10:52 PM 81.0 °F 82.5 °F 64.0 °F 56% 29.83 in 10.0 mi South 17.3 mph 24.2 mph N/A   Clear
11:52 PM 82.0 °F 82.7 °F 61.0 °F 49% 29.83 in 10.0 mi South 21.9 mph 29.9 mph N/A   Clear